Manston, United Kingdom

2:04 AM GMT on February 22, 2017 (GMT +0000)
Manston

Weather History for EGMH - December, 2012

Change the Weather History Date:

Monday, December 31, 2012

  Actual Average Record
Temperature  
Mean Temperature 49 °F -  
Max Temperature 52 °F 44 °F - ()
Min Temperature 46 °F 35 °F - ()
Degree Days  
Heating Degree Days 16    
Moisture  
Dew Point 47 °F    
Average Humidity 85    
Maximum Humidity 91    
Minimum Humidity 76    
Precipitation  
Precipitation 0.04 in 0.06 in - ()
Sea Level Pressure  
Sea Level Pressure 29.67 in    
Wind  
Wind Speed 24 mph ()    
Max Wind Speed 37 mph    
Max Gust Speed 50 mph    
Visibility 6.2 miles    
Events Rain    
T = Trace of Precipitation, MM = Missing Value Source: Averaged Metar Reports

Daily Weather History Graph

Daily Weather History Graph

Search for Another Location

Airport or City:

Trip Planner

Search our weather history database for the weather conditions in past years. The results will help you decide how hot, cold, wet, or windy it might be!

Date:

Astronomy

Dec. 31, 2012 Rise Set
Actual Time 7:59 AM GMT 3:56 PM GMT
Civil Twilight 7:19 AM GMT 4:36 PM GMT
Nautical Twilight 6:36 AM GMT 5:18 PM GMT
Astronomical Twilight 5:56 AM GMT 5:59 PM GMT
Moon 7:36 PM GMT (12/31) 9:10 AM GMT (12/31)
Length of Visible Light 9h 16m
Length of Day
7h 56m
Waning Gibbous, 91% of the Moon is Illuminated
Dec 31
Waning Gibbous
Jan 5
Last Quarter
Jan 11
New
Jan 18
First Quarter
Jan 27
Full

Hourly Weather History & Observations

Time (GMT) Temp. Windchill Dew Point Humidity Pressure Visibility Wind Dir Wind Speed Gust Speed Precip Events Conditions
2:50 AM 50 °F - 46 °F 79% 29.88 in 6 mi SW 24.2 mph - -   Light Haze
5:50 AM 50 °F - 46 °F 79% 29.82 in 7 mi SW 24.2 mph - -  
7:20 AM 50.0 °F - 46.4 °F 87% 29.74 in 6.2 mi SSW 27.6 mph - N/A   Mostly Cloudy
7:50 AM 50.0 °F - 46.4 °F 87% 29.74 in 6.2 mi SSW 27.6 mph - N/A Rain Light Rain
8:20 AM 46.4 °F 37.4 °F 42.8 °F 87% 29.74 in 6.2 mi SSW 28.8 mph - N/A   Mostly Cloudy
8:50 AM 50 °F - 46 °F 81% 29.75 in 6 mi SSW 27.6 mph - -   Light Haze
8:50 AM 50.0 °F - 46.4 °F 87% 29.71 in 6.2 mi SSW 31.1 mph - N/A   Mostly Cloudy
9:20 AM 50.0 °F - 46.4 °F 87% 29.71 in 6.2 mi SSW 29.9 mph 43.7 mph N/A   Mostly Cloudy
9:50 AM 50.0 °F - 46.4 °F 87% 29.71 in 6.2 mi SSW 31.1 mph - N/A Rain Light Rain
10:20 AM 50.0 °F - 46.4 °F 87% 29.71 in 6.2 mi SSW 29.9 mph 44.9 mph N/A Rain Light Rain
10:50 AM 51.8 °F - 46.4 °F 82% 29.68 in 6.2 mi SSW 34.5 mph - N/A   Mostly Cloudy
11:20 AM 51.8 °F - 46.4 °F 82% 29.68 in 6.2 mi SSW 32.2 mph 44.9 mph N/A   Mostly Cloudy
11:50 AM 52 °F - 47 °F 76% 29.67 in 7 mi SSW 31.1 mph - - Rain Rain
11:50 AM 51.8 °F - 46.4 °F 82% 29.62 in 6.2 mi SSW 36.8 mph 49.5 mph N/A   Mostly Cloudy
12:20 PM 51.8 °F - 48.2 °F 88% 29.62 in 3.7 mi SSW 36.8 mph 49.5 mph N/A Rain Rain
12:50 PM 51.8 °F - 48.2 °F 88% 29.59 in 6.2 mi SSW 34.5 mph - N/A Rain Rain
2:50 PM 51 °F - 47 °F 83% 29.57 in 7 mi SSW 31.1 mph - - Rain Light Rain Showers
5:50 PM 51 °F - 49 °F 88% 29.52 in 6 mi SW 25.3 mph - - Rain Light Drizzle
8:50 PM 50 °F - 48 °F 90% 29.52 in 6 mi SSW 16.1 mph - - Rain Rain
11:50 PM 49 °F - 47 °F 91% 29.52 in 7 mi SW 8.1 mph - -   Scattered Clouds